DM4SB-4 Weather Reports


time (UTC)temp
C
wind
direction
speed
KPH
gust
KPH
rain 1hr
cm
rain 24hr
cm
rain mn
cm
humidity
%
barometer
mb
20260507113033 10 153 0.0 6.4 0.00 0.00 0.13 86 1011.3
20260507112033 10 139 1.6 3.2 0.00 0.00 0.13 86 1011.5
20260507111033 10 99 0.0 1.6 0.00 0.00 0.13 89 1011.5
20260507110033 10 113 1.6 6.4 0.00 0.00 0.13 89 1011.5
20260507105034 8 133 0.0 1.6 0.00 0.00 0.13 90 1011.3
20260507104034 9 82 3.2 3.2 0.00 0.00 0.13 90 1011.5
20260507103034 8 167 3.2 8.0 0.00 0.00 0.13 90 1011.5
20260507102034 9 259 1.6 3.2 0.00 0.00 0.13 90 1011.3
20260507101033 8 16 0.0 1.6 0.00 0.00 0.13 90 1011.4
20260507100033 8 229 0.0 3.2 0.00 0.00 0.13 91 1011.3
20260507095033 8 171 0.0 3.2 0.03 0.00 0.13 93 1011.3
20260507094033 8 125 0.0 3.2 0.03 0.00 0.13 92 1011.1
20260507093034 8 160 0.0 6.4 0.03 0.00 0.13 90 1010.9
20260507092034 8 121 1.6 6.4 0.05 0.00 0.13 92 1010.8
20260507091034 8 134 0.0 0.0 0.05 0.00 0.13 94 1010.8
20260507090033 8 154 0.0 1.6 0.05 0.00 0.13 93 1010.7
20260507085033 8 146 0.0 0.0 0.05 0.00 0.08 94 1010.7
20260507084033 8 144 0.0 1.6 0.05 0.00 0.08 94 1010.4
20260507083033 8 250 0.0 1.6 0.05 0.00 0.08 95 1010.3
20260507082034 8 247 0.0 3.2 0.05 0.00 0.08 94 1010.3
20260507081034 8 147 0.0 0.0 0.05 0.00 0.08 95 1010.2
20260507080033 7 114 0.0 3.2 0.00 0.00 0.05 95 1009.9
20260507075033 7 140 1.6 4.8 0.00 0.00 0.05 95 1009.8
20260507074034 8 85 0.0 1.6 0.00 0.00 0.03 95 1009.7
20260507073034 8 258 0.0 1.6 0.00 0.00 0.03 95 1009.6
20260507072034 8 169 0.0 3.2 0.03 0.00 0.03 95 1009.3
20260507071033 8 129 0.0 0.0 0.03 0.00 0.03 96 1009.2
20260507070034 8 123 0.0 1.6 0.03 0.00 0.03 96 1009.2
20260507065033 7 233 0.0 1.6 0.03 0.00 0.03 95 1009.2
20260507064034 8 146 0.0 1.6 0.03 0.00 0.03 96 1009.1
20260507063034 7 158 0.0 4.8 0.00 0.00 0.00 95 1009.1
20260507062033 7 106 1.6 4.8 0.00 0.00 0.00 95 1009.0
20260507061033 7 126 0.0 6.4 0.00 0.00 0.00 95 1009.1
20260507060033 7 228 0.0 0.0 0.00 0.00 0.00 96 1009.0
20260507055033 7 228 0.0 1.6 0.00 0.00 0.00 96 1008.7
20260507054033 7 105 0.0 1.6 0.00 0.00 0.00 96 1008.6
20260507053034 7 161 0.0 1.6 0.00 0.00 0.00 96 1008.4
20260507052034 7 136 0.0 0.0 0.00 0.00 0.00 97 1008.4
20260507051033 7 104 0.0 6.4 0.00 0.00 0.00 98 1008.2
20260507050034 7 329 0.0 4.8 0.00 0.00 0.00 98 1008.1
20260507045034 7 141 0.0 0.0 0.00 0.00 0.00 98 1008.1
20260507044034 7 123 0.0 0.0 0.00 0.00 0.00 99 1008.1
20260507043033 6 257 0.0 0.0 0.00 0.00 0.00 99 1007.7
20260507042034 6 151 0.0 0.0 0.00 0.00 0.00 98 1007.7
20260507041033 6 151 0.0 0.0 0.00 0.00 0.00 98 1007.7
20260507040033 6 151 0.0 0.0 0.00 0.00 0.00 98 1007.6
20260507035033 6 152 0.0 0.0 0.00 0.00 0.00 98 1007.5
20260507034034 6 152 0.0 0.0 0.00 0.00 0.00 98 1007.4
20260507033034 6 152 0.0 0.0 0.00 0.00 0.00 98 1007.3
20260507032033 6 152 0.0 0.0 0.00 0.00 0.00 98 1007.3
20260507031033 6 152 0.0 0.0 0.00 0.00 0.00 98 1007.3
20260507030033 6 151 0.0 0.0 0.00 0.00 0.00 98 1007.3
20260507025034 6 151 0.0 0.0 0.00 0.00 0.00 98 1007.1
20260507024034 6 151 0.0 0.0 0.00 0.00 0.00 98 1007.3
20260507023034 6 151 0.0 0.0 0.00 0.00 0.00 98 1007.2
20260507022034 6 152 0.0 0.0 0.00 0.00 0.00 98 1007.2
20260507021033 6 151 0.0 0.0 0.00 0.00 0.00 98 1007.1
20260507020034 6 152 0.0 0.0 0.00 0.00 0.00 98 1007.2
20260507015034 6 151 0.0 0.0 0.00 0.00 0.00 98 1007.0
20260507014034 6 151 0.0 0.0 0.00 0.00 0.00 98 1007.0
20260507013033 5 151 0.0 0.0 0.00 0.00 0.00 98 1007.2
20260507012033 5 151 0.0 0.0 0.00 0.00 0.00 98 1006.7
20260507011033 5 151 0.0 0.0 0.00 0.00 0.00 98 1007.0
20260507010033 5 151 0.0 0.0 0.00 0.00 0.00 98 1006.8
20260507005033 6 152 0.0 0.0 0.00 0.00 0.00 98 1006.7
20260507004033 6 149 0.0 0.0 0.00 0.00 0.00 98 1006.7
20260507003034 5 170 0.0 0.0 0.00 0.00 0.00 97 1006.6
20260507002034 6 170 0.0 0.0 0.00 0.00 0.00 97 1006.8
20260507001033 6 170 0.0 0.0 0.00 0.00 0.00 97 1006.8
20260507000033 7 170 0.0 0.0 0.00 0.00 0.00 97 1006.8
20260506235033 7 170 0.0 0.0 0.00 0.00 0.00 97 1006.8
20260506234033 7 151 0.0 4.8 0.00 0.00 0.00 97 1006.8
20260506233033 7 170 0.0 0.0 0.00 0.00 0.00 97 1007.0
20260506232034 7 269 0.0 0.0 0.00 0.00 0.00 97 1007.0
20260506231034 7 147 0.0 0.0 0.00 0.00 0.00 97 1006.8
20260506230033 7 152 0.0 0.0 0.00 0.00 0.00 97 1007.0
20260506225033 7 152 0.0 0.0 0.00 0.00 0.00 97 1007.0
20260506224033 8 215 0.0 0.0 0.00 0.00 0.00 97 1006.7
20260506223033 8 142 0.0 0.0 0.00 0.00 0.00 98 1006.8
20260506222033 8 134 0.0 0.0 0.00 0.00 0.00 98 1006.5
20260506221033 8 133 0.0 1.6 0.00 0.00 0.00 98 1006.5
20260506220033 8 160 0.0 0.0 0.00 0.00 1.22 98 1006.1
20260506215034 8 160 0.0 0.0 0.00 0.00 1.22 98 1006.4
20260506214034 8 160 0.0 0.0 0.00 0.00 1.22 98 1006.1
20260506213033 8 160 0.0 0.0 0.00 0.00 1.22 98 1006.4
20260506212033 8 160 0.0 0.0 0.00 0.00 1.22 98 1006.3
20260506211033 8 160 0.0 0.0 0.00 0.00 1.22 98 1006.3
20260506210033 8 165 0.0 0.0 0.00 0.00 1.22 97 1006.2
20260506205033 8 167 0.0 0.0 0.00 0.00 1.22 97 1006.0
20260506204033 8 167 0.0 0.0 0.00 0.00 1.22 97 1006.0
20260506203034 8 168 0.0 0.0 0.00 0.00 1.22 97 1005.9
20260506202034 8 168 0.0 0.0 0.00 0.00 1.22 97 1006.0
20260506201033 8 168 0.0 0.0 0.00 0.00 1.22 97 1006.0
20260506200033 8 168 0.0 0.0 0.00 0.00 1.22 97 1005.8
20260506195033 8 167 0.0 0.0 0.00 0.00 1.22 97 1005.8
20260506194033 8 157 0.0 0.0 0.00 0.00 1.22 97 1005.8
20260506193033 8 157 0.0 0.0 0.00 0.00 1.22 96 1005.7
20260506192034 8 140 0.0 0.0 0.00 0.00 1.22 96 1005.6
20260506191034 8 156 0.0 0.0 0.00 0.00 1.22 96 1005.0
20260506190033 9 137 0.0 0.0 0.00 0.00 1.22 97 1005.3
20260506185033 9 294 0.0 0.0 0.00 0.00 1.22 96 1005.0
20260506184033 9 184 0.0 0.0 0.00 0.00 1.22 96 1005.0
20260506183034 9 113 0.0 0.0 0.00 0.00 1.22 96 1004.7
20260506182033 10 166 0.0 1.6 0.05 0.00 1.22 96 1004.8
20260506181033 10 153 0.0 0.0 0.13 0.00 1.22 96 1004.6
20260506180034 10 150 0.0 0.0 0.23 0.00 1.22 96 1004.3
20260506175034 10 153 0.0 1.6 0.38 0.00 1.22 96 1004.3
20260506174033 10 175 0.0 0.0 0.53 0.00 1.19 96 1004.1
20260506173033 10 142 0.0 3.2 0.69 0.00 1.19 96 1004.0
20260506172033 10 174 0.0 1.6 0.66 0.00 1.14 95 1003.9
20260506171033 10 157 0.0 1.6 0.51 0.00 1.02 95 1004.0
20260506170034 10 162 0.0 1.6 0.41 0.00 0.91 95 1004.2
20260506165034 10 125 0.0 1.6 0.28 0.00 0.76 94 1004.1
20260506164034 10 160 3.2 4.8 0.10 0.00 0.61 94 1004.1
20260506163033 10 139 0.0 0.0 0.00 0.00 0.48 94 1003.8
20260506162033 11 123 0.0 3.2 0.10 0.00 0.48 93 1003.5
20260506161033 11 281 0.0 6.4 0.13 0.00 0.48 92 1003.3
20260506160033 11 180 1.6 3.2 0.30 0.00 0.48 92 1003.6
20260506155033 11 122 0.0 3.2 0.48 0.00 0.48 92 1003.5
20260506154034 11 122 1.6 4.8 0.48 0.00 0.48 93 1003.1
20260506153034 11 177 0.0 1.6 0.46 0.00 0.46 92 1003.0
20260506152034 11 261 0.0 0.0 0.38 0.00 0.38 92 1002.9
20260506151033 11 262 0.0 0.0 0.28 0.00 0.28 90 1002.8
20260506150033 13 58 0.0 3.2 0.03 0.00 0.03 81 1002.4
20260506145033 15 125 0.0 0.0 0.00 0.00 0.00 76 1002.2
20260506144033 15 125 1.6 3.2 0.00 0.00 0.00 70 1002.3
20260506143034 16 150 0.0 1.6 0.00 0.00 0.00 70 1002.0
20260506142034 16 124 0.0 0.0 0.00 0.00 0.00 73 1002.5
20260506141034 15 124 0.0 0.0 0.00 0.00 0.00 77 1002.4
20260506140033 15 124 0.0 0.0 0.00 0.00 0.00 78 1002.3
20260506135033 16 123 0.0 0.0 0.00 0.00 0.00 69 1002.2
20260506134033 17 123 0.0 0.0 0.00 0.00 0.00 64 1002.5
20260506133033 16 133 0.0 0.0 0.00 0.00 0.00 66 1002.3
20260506132033 16 126 0.0 1.6 0.00 0.00 0.00 66 1002.4
20260506131033 16 91 0.0 0.0 0.00 0.00 0.00 69 1002.5
20260506130034 16 134 0.0 3.2 0.00 0.00 0.00 71 1002.6
20260506125033 16 119 0.0 1.6 0.00 0.00 0.00 69 1002.5
20260506124033 16 116 0.0 1.6 0.00 0.00 0.00 70 1002.6
20260506123033 16 132 0.0 0.0 0.00 0.00 0.00 75 1002.6
20260506122033 15 132 0.0 0.0 0.00 0.00 0.00 72 1002.5
20260506121033 15 121 0.0 1.6 0.00 0.00 0.00 76 1002.6
20260506120033 15 108 3.2 3.2 0.00 0.00 0.00 71 1002.7
20260506115034 15 123 0.0 1.6 0.00 0.00 0.00 75 1002.7
20260506114034 15 129 0.0 0.0 0.00 0.00 0.00 76 1002.6